Home > Weather > Netanya > Past weeks

Flag for Israel Weather for the Past 2 Weeks in Netanya, Israel

Now
68 °F

Clear.


Feels Like: 68 °F
Forecast: 69 / 75 °F
Wind: 3 mph from North

Location: Ben Gurion International Airport

Current Time: May 1, 2016 at 4:20:33 AM

Latest Report: May 1, 2016 at 3:50 AM


Visibility: 10 mi

Pressure: 29.77 "Hg

Humidity: 60%

Dew Point: 54 °F

Location of NetanyaLocation

Historic Weather in Netanya — Graph

°F

Netanya Temperature Yesterday

Maximum temperature yesterday: 84 °F (at 2:50 PM)
Minimum temperature yesterday: 59 °F (at 5:50 AM)
Average temperature yesterday: 72 °F

High & Low Weather Summary for the Past Weeks

 TemperatureHumidityPressure
High104 °F (Apr 26, 2:50 PM)94% (Apr 19, 3:20 AM)30.12 "Hg (Apr 19, 3:20 AM)
Low55 °F (Apr 18, 5:20 AM)7% (Apr 20, 11:20 AM)29.56 "Hg (Apr 25, 12:50 AM)
Average74 °F51%29.91 "Hg
* Reported Apr 16 2:50 AM — May 1 2:50 AM, Netanya, Weather by CustomWeather, © 2016

Note: Actual official high and low records may vary slightly from our data, if they occured in-between our weather recording intervals... More about our weather records

Advertising

Netanya Weather History for the Previous 24 Hours

Scroll right to see more
 ConditionsComfort  
Time TempWeatherWind HumidityBarometerVisibility
2:50 AM
Sun, May 1
66 °FClear.3 mph68%29.77 "Hg10 mi
2:20 AM68 °FClear.1 mph69%29.80 "Hg10 mi
1:50 AM68 °FClear.5 mph69%29.80 "Hg10 mi
1:20 AM68 °FClear.2 mph73%29.80 "Hg10 mi
12:50 AM66 °FClear.1 mph78%29.83 "Hg10 mi
12:20 AM70 °FClear.3 mph73%29.83 "Hg10 mi
11:50 PM
Sat, Apr 30
70 °FClear.2 mph73%29.83 "Hg10 mi
11:20 PM70 °FClear.3 mph73%29.83 "Hg10 mi
10:50 PM72 °FClear.3 mph69%29.83 "Hg10 mi
10:20 PM70 °FClear.3 mph73%29.86 "Hg10 mi
9:50 PM72 °FClear.6 mph65%29.86 "Hg10 mi
9:20 PM73 °FClear.5 mph61%29.86 "Hg10 mi
8:50 PM73 °FClear.5 mph61%29.86 "Hg10 mi
8:20 PM73 °FClear.3 mph61%29.86 "Hg10 mi
7:50 PM75 °FSunny.5 mph54%29.86 "Hg10 mi
7:20 PM75 °FSunny.5 mph54%29.86 "Hg10 mi
6:50 PM77 °FSunny.5 mph47%29.86 "Hg10 mi
6:20 PM77 °FSunny.7 mph47%29.86 "Hg10 mi
5:50 PM79 °FSunny.9 mph45%29.86 "Hg10 mi
5:20 PM79 °FSunny.10 mph45%29.86 "Hg10 mi
4:50 PM81 °FSunny.12 mph39%29.86 "Hg10 mi
4:20 PM82 °FSunny.10 mph30%29.86 "Hg10 mi
3:50 PM84 °FSunny.9 mph33%29.86 "Hg10 mi
3:20 PM84 °FPassing clouds.8 mph33%29.86 "HgN/A
2:50 PM84 °FPassing clouds.6 mph31%29.89 "HgN/A
2:20 PM82 °FPassing clouds.8 mph32%29.89 "HgN/A
1:50 PM82 °FSunny.8 mph32%29.89 "Hg10 mi
1:20 PM82 °FSunny.9 mph32%29.92 "Hg10 mi
12:50 PM81 °FSunny.10 mph34%29.92 "Hg10 mi
12:20 PM81 °FSunny.8 mph39%29.95 "Hg10 mi
11:20 AM81 °FSunny.7 mph34%29.95 "Hg10 mi
10:50 AM81 °FSunny.8 mph28%29.95 "Hg10 mi
10:20 AM77 °FSunny.6 mph30%29.95 "Hg10 mi
9:50 AM77 °FSunny.8 mph26%29.95 "Hg10 mi
9:20 AM75 °FSunny.6 mph29%29.95 "Hg10 mi
8:50 AM72 °FSunny.1 mph38%29.95 "Hg10 mi
8:20 AM68 °FSunny.2 mph40%29.95 "Hg10 mi
7:50 AM66 °FSunny.1 mph46%29.95 "Hg10 mi
7:20 AM63 °FSunny.3 mph59%29.95 "Hg10 mi
6:50 AM61 °FClear.7 mph68%29.95 "Hg10 mi
6:20 AM59 °FClear.3 mph72%29.95 "Hg10 mi
5:50 AM59 °FPassing clouds.1 mph72%29.95 "HgN/A
5:20 AM61 °FPassing clouds.3 mph68%29.95 "HgN/A
4:50 AM61 °FClear.5 mph72%29.98 "Hg10 mi
4:20 AM61 °FClear.3 mph77%29.95 "Hg10 mi
Weather by CustomWeather, © 2016

See weather overviewHow to use our weather pages